Volver al catálogo

COSMOS 2323

GLONASS

ActivoNavegaciónMEO
NORAD 23736·PAYLOAD·🇷🇺 Russia

Lanzado Dec 14, 1995 desde Baikonur Cosmodrome

Loading…

Próximos Pases (próximas 24 horas)

TLE

ActualizadoSource: Space-Track

Época: Sep 10, 2026, 23:38 UTC

1 23736U 95068C   26253.98504218 -.00000007  00000-0  00000-0 0  9992
2 23736  65.4640 199.8500 0009499 191.5936 354.6234  2.13104168239035

Sigue COSMOS 2323 en tiempo real con AllMySat

Download on the App Store